[[{"header":{"parameterUnit":"m.s-1","parameterCategory":1,"la1":30.2992,"la2":30.254,"lo1":-89.0895,"lo2":-89.0443,"dy":0.0025,"dx":0.0025,"nx":19,"ny":19,"refTime":"2026-04-12T09:00:00:Z","depth":0,"parameterNumber":2,"parameterNumberName":"U-component_of_WINDS"},"data":[0,0,0,-1.2676,-1.2677,-1.2736,-1.2736,-1.2816,-1.2817,0,0,0,0,0,0,0,0,0,0,0,-1.2661,-1.2662,-1.2676,-1.2678,-1.2736,-1.2736,-1.2816,-1.2817,0,0,0,0,0,0,0,0,0,0,0,-1.2661,-1.2661,-1.2662,-1.2678,-1.2736,-1.2736,-1.2816,-1.277,0,0,0,0,0,0,0,0,0,0,-1.2713,-1.27,-1.2661,-1.2662,-1.2678,-1.2736,-1.2736,-1.2768,-1.2773,-1.2791,0,-1.2808,0,-1.2813,-1.2822,-1.2823,0,0,0,-1.2676,-1.2696,-1.271,-1.2662,-1.2679,-1.2736,-1.2709,-1.2771,-1.2776,-1.2798,-1.2809,-1.2811,-1.2815,-1.2823,-1.2823,-1.2933,-1.2933,0,0,-1.2673,-1.2673,-1.2706,-1.2714,-1.2704,-1.2707,-1.2711,-1.2774,-1.2786,-1.2809,-1.2813,-1.2816,-1.2823,-1.2824,-1.2932,-1.2933,0,0,0,-1.2665,-1.2671,-1.2683,-1.271,-1.272,-1.2709,-1.2713,-1.2783,-1.2787,-1.2814,-1.2817,-1.2824,-1.2825,-1.2932,-1.2933,-1.2962,0,0,0,-1.2663,-1.2666,-1.2681,-1.2682,-1.2719,-1.2752,-1.2721,-1.2782,-1.279,-1.2817,-1.2824,-1.2826,-1.2931,-1.2932,-1.296,-1.2976,0,0,0,-1.2657,-1.2665,-1.2674,-1.2682,-1.2707,-1.2751,-1.2759,-1.2784,-1.2791,-1.2823,-1.2826,-1.2931,-1.2932,-1.2958,-1.2973,-1.3006,0,0,0,-1.265,-1.2699,-1.2675,-1.273,-1.2706,-1.2768,-1.2758,-1.2804,-1.2834,-1.2824,-1.2931,-1.2933,-1.2957,-1.2971,-1.3004,-1.3035,-1.3048,0,0,-1.2712,-1.2706,-1.2739,-1.2719,-1.2785,-1.2759,-1.283,-1.2858,-1.2861,-1.2909,-1.2912,-1.296,-1.2973,-1.3006,-1.3114,-1.3124,0,0,0,-1.2758,-1.2782,-1.28,-1.2828,-1.285,-1.2871,-1.2888,-1.2898,-1.2939,-1.2885,-1.298,-1.2988,-1.3007,-1.3022,-1.3031,-1.3048,-1.2939,-1.2939,-1.2939,-1.2847,-1.2848,-1.2902,-1.2911,-1.2938,-1.2955,-1.2978,-1.2995,-1.2988,-1.3011,-1.3026,-1.3091,-1.3109,-1.3115,-1.3133,-1.3041,-1.3041,-1.3041,-1.3041,-1.2938,-1.2973,-1.2962,-1.3011,-1.3013,-1.3054,-1.3073,-1.3066,-1.3106,-1.308,-1.3097,-1.307,-1.3126,-1.3142,-1.3043,-1.3043,-1.3042,-1.3042,-1.3042,-1.2998,-1.3015,-1.3026,-1.3068,-1.31,-1.3106,-1.3145,-1.3144,-1.3144,-1.316,-1.3177,-1.3177,-1.3178,-1.3168,-1.3168,-1.3168,-1.3169,-1.3169,-1.3169,-1.3057,-1.3068,-1.31,-1.3128,-1.3146,-1.317,-1.3188,-1.3206,-1.3227,-1.3223,-1.3223,-1.3215,-1.313,-1.311,-1.3173,-1.3172,-1.3172,-1.3171,-1.3171,-1.3153,-1.3131,-1.3181,-1.32,-1.3232,-1.3265,-1.3262,-1.33,-1.3315,-1.3335,-1.3322,-1.3259,-1.3254,-1.3247,-1.3231,-1.3321,-1.3321,-1.3321,-1.3321,-1.3205,-1.3202,-1.3253,-1.3283,-1.3312,-1.3315,-1.3373,-1.3387,-1.3398,-1.3408,-1.3394,-1.3371,-1.3364,-1.3364,-1.3354,-1.3339,-1.3455,-1.3455,-1.3455,-1.3266,-1.3265,-1.3314,-1.3324,-1.3349,-1.3371,-1.3426,-1.3462,-1.3469,-1.346,-1.3416,-1.341,-1.3373,-1.3361,-1.3353,-1.3339,-1.3311,0,0]},{"header":{"parameterUnit":"m.s-1","parameterCategory":1,"la1":30.2992,"la2":30.254,"lo1":-89.0895,"lo2":-89.0443,"dy":0.0025,"dx":0.0025,"nx":19,"ny":19,"refTime":"2026-04-12T09:00:00:Z","depth":0,"parameterNumber":3,"parameterNumberName":"V-component_of_WINDS"},"data":[0,0,0,1.9067,1.9068,1.9105,1.9105,1.9171,1.9171,0,0,0,0,0,0,0,0,0,0,0,1.9068,1.9069,1.9067,1.9068,1.9105,1.9105,1.917,1.9171,0,0,0,0,0,0,0,0,0,0,0,1.9068,1.9069,1.907,1.9068,1.9105,1.9105,1.917,1.9136,0,0,0,0,0,0,0,0,0,0,1.9097,1.911,1.9069,1.907,1.9068,1.9105,1.9105,1.9134,1.9138,1.9162,0,1.9188,0,1.9181,1.9177,1.9177,0,0,0,1.9059,1.9107,1.9105,1.907,1.9069,1.9105,1.9085,1.9136,1.9141,1.9168,1.9188,1.919,1.9182,1.9178,1.9178,1.9348,1.9349,0,0,1.9057,1.9081,1.9102,1.9109,1.9105,1.9084,1.9087,1.9138,1.9162,1.9189,1.9191,1.9183,1.9178,1.9179,1.9347,1.9348,0,0,0,1.9057,1.9081,1.9077,1.9107,1.9112,1.9086,1.9088,1.916,1.9157,1.9192,1.9184,1.9179,1.918,1.9345,1.9347,1.943,0,0,0,1.9055,1.9081,1.9077,1.9092,1.9112,1.9137,1.9109,1.9153,1.9158,1.9183,1.9179,1.918,1.9344,1.9346,1.9425,1.9466,0,0,0,1.9062,1.9081,1.9091,1.9094,1.911,1.9135,1.9135,1.9154,1.9154,1.9177,1.9181,1.9343,1.9346,1.9421,1.9458,1.9516,0,0,0,1.9075,1.9165,1.9092,1.9189,1.911,1.9187,1.9134,1.919,1.922,1.9179,1.9344,1.9347,1.9419,1.9453,1.9512,1.9569,1.9596,0,0,1.9203,1.9182,1.9237,1.9172,1.9268,1.9179,1.9286,1.9291,1.9272,1.9323,1.9327,1.9427,1.9457,1.9515,1.9738,1.9759,0,0,0,1.9285,1.9325,1.9345,1.9374,1.9379,1.9387,1.9372,1.9373,1.9416,1.9303,1.9463,1.9481,1.9514,1.954,1.9558,1.9584,1.9361,1.936,1.936,1.9502,1.947,1.9558,1.953,1.9559,1.9542,1.9562,1.9561,1.9522,1.956,1.9575,1.9714,1.9746,1.9759,1.9787,1.9604,1.9604,1.9604,1.9604,1.9684,1.9735,1.9678,1.9743,1.9709,1.9763,1.9749,1.9719,1.9764,1.9701,1.9728,1.9661,1.9784,1.9806,1.961,1.9609,1.9609,1.9608,1.9608,1.9822,1.984,1.9839,1.9876,1.9908,1.9877,1.9922,1.9889,1.9859,1.9886,1.9897,1.9896,1.989,1.9894,1.9894,1.9895,1.9895,1.9896,1.9896,1.9965,1.9961,2.0002,2.0013,2.0026,2.0039,2.0021,2.0033,2.0038,2.0011,2.001,1.9967,1.9802,1.9761,1.9903,1.9902,1.9901,1.99,1.99,2.0161,2.0111,2.0175,2.0188,2.0196,2.0229,2.0186,2.0213,2.0218,2.0241,2.0191,2.0074,2.0051,2.0036,2.0002,2.0198,2.0198,2.0198,2.0198,2.0277,2.0261,2.0318,2.034,2.0358,2.0325,2.0397,2.0383,2.0361,2.0362,2.0329,2.0281,2.0267,2.0251,2.0232,2.0199,2.0441,2.0442,2.0442,2.0395,2.0379,2.0447,2.0423,2.0427,2.043,2.0497,2.0524,2.0489,2.0451,2.0362,2.0351,2.0273,2.0249,2.021,2.0181,2.012,0,0]}]]